FW2338 Weather Reports


time (UTC)temp
C
wind
direction
speed
KPH
gust
KPH
rain 1hr
cm
rain 24hr
cm
rain mn
cm
humidity
%
barometer
mb
20260505032318 17 176 0.0 3.2 0.00 0.00 0.00 51 1015.4
20260505031817 18 150 0.0 4.8 0.00 0.00 0.00 50 1015.3
20260505031317 18 166 3.2 4.8 0.00 0.00 0.00 49 1015.3
20260505030817 18 156 3.2 3.2 0.00 0.00 0.00 49 1015.5
20260505030319 18 150 0.0 3.2 0.00 0.00 0.00 49 1015.3
20260505025817 18 205 0.0 3.2 0.00 0.00 0.00 49 1015.6
20260505025315 18 155 3.2 3.2 0.00 0.00 0.00 48 1015.4
20260505024816 18 75 0.0 3.2 0.00 0.00 0.00 49 1015.4
20260505024553 18 110 0.0 3.2 0.00 0.00 0.00 47 1015.6
20260505024046 18 176 3.2 3.2 0.00 0.00 0.00 47 1015.4
20260505023316 18 60 0.0 3.2 0.00 0.00 0.00 47 1015.3
20260505022816 18 76 0.0 3.2 0.00 0.00 0.00 47 1015.3
20260505022316 18 198 0.0 3.2 0.00 0.00 0.00 45 1015.1
20260505021817 18 60 0.0 3.2 0.00 0.00 0.00 46 1015.1
20260505021316 18 69 0.0 3.2 0.00 0.00 0.00 46 1015.3
20260505021046 18 76 0.0 3.2 0.00 0.00 0.00 45 1015.1
20260505020317 18 90 1.6 3.2 0.00 0.00 0.00 44 1015.1
20260505015816 18 69 0.0 3.2 0.00 0.00 0.00 45 1015.1
20260505015554 18 81 0.0 4.8 0.00 0.00 0.00 45 1014.9
20260505014817 18 60 0.0 4.8 0.00 0.00 0.00 44 1015.0
20260505014315 19 90 1.6 3.2 0.00 0.00 0.00 44 1014.9
20260505013816 19 118 0.0 3.2 0.00 0.00 0.00 42 1014.9
20260505013316 20 121 0.0 3.2 0.00 0.00 0.00 41 1014.7
20260505012817 20 130 3.2 3.2 0.00 0.00 0.00 41 1014.8
20260505012317 20 127 0.0 1.6 0.00 0.00 0.00 40 1014.7
20260505011818 20 127 0.0 1.6 0.00 0.00 0.00 40 1014.6
20260505011316 20 142 0.0 1.6 0.00 0.00 0.00 40 1014.3
20260505011145 21 87 0.0 0.0 0.00 0.00 0.00 39 1014.2
20260505011141 20 87 0.0 0.0 0.00 0.00 0.00 39 1014.4
20260505005817 21 87 0.0 3.2 0.00 0.00 0.00 38 1014.3
20260505005304 21 87 0.0 3.2 0.00 0.00 0.00 38 1014.3
20260505004804 21 186 0.0 3.2 0.00 0.00 0.00 37 1014.5
20260505004304 21 213 0.0 3.2 0.00 0.00 0.00 36 1014.3
20260505003805 21 185 0.0 4.8 0.00 0.00 0.00 36 1014.3
20260505003305 22 210 0.0 4.8 0.00 0.00 0.00 37 1014.1
20260505002804 21 191 3.2 4.8 0.00 0.00 0.00 36 1014.2
20260505002304 22 224 1.6 4.8 0.00 0.00 0.00 36 1014.2
20260505001805 22 225 0.0 3.2 0.00 0.00 0.00 37 1014.1
20260505001303 22 216 0.0 3.2 0.00 0.00 0.00 37 1014.1
20260505000804 22 210 0.0 4.8 0.00 0.00 0.00 37 1014.1
20260505000309 22 195 3.2 4.8 0.00 0.00 0.00 36 1014.1
20260504235807 22 240 0.0 4.8 0.00 0.00 0.00 36 1014.0
20260504235543 22 185 0.0 9.7 0.00 0.00 0.00 36 1014.0
20260504234805 23 195 0.0 9.7 0.00 0.00 0.00 35 1013.9
20260504234304 23 230 3.2 9.7 0.00 0.00 0.00 36 1014.0
20260504233804 23 198 0.0 9.7 0.00 0.00 0.00 35 1013.9
20260504233319 23 150 0.0 9.7 0.00 0.00 0.00 35 1013.6
20260504232803 23 150 0.0 6.4 0.00 0.00 0.00 34 1013.6
20260504232304 23 236 4.8 4.8 0.00 0.00 0.00 33 1013.7
20260504231804 23 207 0.0 6.4 0.00 0.00 0.00 31 1013.3
20260504231304 23 206 3.2 9.7 0.00 0.00 0.00 31 1013.4
20260504230804 23 209 0.0 9.7 0.00 0.00 0.00 30 1013.3
20260504230305 23 221 3.2 9.7 0.00 0.00 0.00 30 1013.6
20260504225805 23 207 3.2 8.0 0.00 0.00 0.00 31 1013.6
20260504225304 24 224 8.0 9.7 0.00 0.00 0.00 32 1013.6
20260504224804 24 215 3.2 9.7 0.00 0.00 0.00 33 1013.5
20260504224304 24 210 0.0 8.0 0.00 0.00 0.00 33 1013.5
20260504223804 24 240 0.0 9.7 0.00 0.00 0.00 32 1013.6
20260504223304 24 213 4.8 12.9 0.00 0.00 0.00 30 1013.4
20260504222806 25 231 0.0 12.9 0.00 0.00 0.00 30 1013.6
20260504222305 25 240 3.2 11.3 0.00 0.00 0.00 29 1013.7
20260504222040 25 230 3.2 11.3 0.00 0.00 0.00 29 1013.6
20260504221304 25 207 3.2 9.7 0.00 0.00 0.00 29 1013.6
20260504221053 25 216 0.0 9.7 0.00 0.00 0.00 29 1013.6
20260504220305 25 186 0.0 8.0 0.00 0.00 0.00 28 1013.6
20260504215804 25 203 3.2 8.0 0.00 0.00 0.00 28 1013.7
20260504215538 25 150 0.0 8.0 0.00 0.00 0.00 27 1013.5
20260504214804 25 223 3.2 11.3 0.00 0.00 0.00 27 1013.8
20260504214304 25 240 4.8 11.3 0.00 0.00 0.00 27 1013.6
20260504213804 25 205 3.2 8.0 0.00 0.00 0.00 27 1013.6
20260504213305 25 150 0.0 8.0 0.00 0.00 0.00 28 1013.7
20260504212804 25 157 0.0 8.0 0.00 0.00 0.00 27 1013.7
20260504212540 25 195 3.2 9.7 0.00 0.00 0.00 28 1013.7
20260504211804 25 150 0.0 9.7 0.00 0.00 0.00 27 1013.8
20260504211304 25 258 9.7 9.7 0.00 0.00 0.00 28 1013.6
20260504210804 25 248 0.0 11.3 0.00 0.00 0.00 27 1013.7
20260504210556 25 235 4.8 11.3 0.00 0.00 0.00 26 1013.9
20260504205807 26 204 0.0 9.7 0.00 0.00 0.00 27 1013.7
20260504205307 25 232 4.8 12.9 0.00 0.00 0.00 26 1013.9
20260504204804 25 257 3.2 12.9 0.00 0.00 0.00 27 1014.0
20260504204304 25 136 0.0 8.0 0.00 0.00 0.00 27 1013.9
20260504203804 25 240 4.8 9.7 0.00 0.00 0.00 26 1014.0
20260504203305 25 142 0.0 11.3 0.00 0.00 0.00 26 1014.0
20260504202803 25 245 8.0 11.3 0.00 0.00 0.00 29 1014.2
20260504202305 25 221 4.8 11.3 0.00 0.00 0.00 29 1014.1
20260504201804 25 260 4.8 11.3 0.00 0.00 0.00 30 1014.4
20260504201303 25 213 4.8 9.7 0.00 0.00 0.00 29 1014.2
20260504200804 25 142 1.6 8.0 0.00 0.00 0.00 29 1014.4
20260504200305 25 257 6.4 8.0 0.00 0.00 0.00 30 1014.5
20260504195804 25 229 3.2 8.0 0.00 0.00 0.00 29 1014.6
20260504195304 25 240 1.6 6.4 0.00 0.00 0.00 29 1014.5
20260504194804 25 240 0.0 8.0 0.00 0.00 0.00 31 1014.5
20260504194536 25 142 1.6 9.7 0.00 0.00 0.00 30 1014.7
20260504193804 25 218 4.8 9.7 0.00 0.00 0.00 29 1014.5
20260504193306 25 124 3.2 6.4 0.00 0.00 0.00 30 1014.6
20260504192804 25 109 3.2 6.4 0.00 0.00 0.00 30 1014.6
20260504192304 25 195 3.2 6.4 0.00 0.00 0.00 31 1014.6
20260504191804 25 84 1.6 8.0 0.00 0.00 0.00 30 1014.7
20260504191304 25 225 3.2 8.0 0.00 0.00 0.00 31 1014.7
20260504190804 25 79 0.0 8.0 0.00 0.00 0.00 32 1014.9
20260504190308 25 179 3.2 6.4 0.00 0.00 0.00 33 1014.9
20260504190045 25 190 0.0 6.4 0.00 0.00 0.00 31 1015.1
20260504185611 25 60 0.0 9.7 0.00 0.00 0.00 29 1015.1
20260504184805 24 240 3.2 9.7 0.00 0.00 0.00 31 1015.0
20260504184304 25 41 0.0 6.4 0.00 0.00 0.00 30 1015.3
20260504183804 25 138 0.0 9.7 0.00 0.00 0.00 30 1015.2
20260504183309 25 85 3.2 9.7 0.00 0.00 0.00 32 1015.2
20260504182804 24 135 0.0 9.7 0.00 0.00 0.00 33 1015.5
20260504182304 24 215 3.2 12.9 0.00 0.00 0.00 31 1015.4
20260504181804 24 224 3.2 12.9 0.00 0.00 0.00 32 1015.3
20260504181304 24 105 3.2 9.7 0.00 0.00 0.00 32 1015.3
20260504180804 24 180 3.2 9.7 0.00 0.00 0.00 31 1015.6
20260504180545 24 146 0.0 6.4 0.00 0.00 0.00 31 1015.6
20260504175807 25 90 3.2 8.0 0.00 0.00 0.00 32 1015.7
20260504175307 23 271 3.2 8.0 0.00 0.00 0.00 32 1015.9
20260504175037 23 90 0.0 6.4 0.00 0.00 0.00 34 1015.8
20260504174536 23 358 0.0 4.8 0.00 0.00 0.00 33 1015.7
20260504174040 23 96 3.2 8.0 0.00 0.00 0.00 32 1015.8
20260504173307 23 276 3.2 8.0 0.00 0.00 0.00 31 1015.8
20260504172809 23 60 1.6 4.8 0.00 0.00 0.00 34 1016.0
20260504172304 23 272 4.8 8.0 0.00 0.00 0.00 33 1015.8
20260504171804 23 67 3.2 8.0 0.00 0.00 0.00 33 1016.0
20260504171304 23 264 3.2 6.4 0.00 0.00 0.00 34 1015.8
20260504171039 23 60 0.0 9.7 0.00 0.00 0.00 33 1015.8
20260504170319 23 52 0.0 9.7 0.00 0.00 0.00 32 1015.9
20260504160305 21 190 6.4 8.0 0.00 0.00 0.00 38 1017.1
20260504151039 19 156 3.2 6.4 0.00 0.00 0.00 50 1017.1
20260504150309 18 150 0.0 4.8 0.00 0.00 0.00 50 1017.3
20260504141302 16 156 0.0 4.8 0.00 0.00 0.00 62 1017.3
20260504140815 16 240 0.0 3.2 0.00 0.00 0.00 63 1017.4
20260504140811 16 190 0.0 4.8 0.00 0.00 0.00 62 1017.2
20260504130304 12 136 1.6 4.8 0.00 0.00 0.00 76 1017.2
20260504120253 11 150 0.0 3.2 0.00 0.00 0.00 80 1016.9
20260504110457 10 150 0.0 3.2 0.00 0.00 0.00 84 1017.0
20260504100229 10 155 0.0 3.2 0.00 0.00 0.00 81 1017.0
20260504081717 10 84 3.2 4.8 0.00 0.00 0.00 77 1016.3
20260504081217 10 41 0.0 3.2 0.00 0.00 0.00 76 1016.2
20260504080717 10 135 0.0 3.2 0.00 0.00 0.00 76 1016.6
20260504080216 10 51 0.0 4.8 0.00 0.00 0.00 75 1016.4
20260504070217 11 60 0.0 3.2 0.00 0.00 0.00 69 1016.8
20260504050717 12 90 1.6 8.0 0.00 0.00 0.00 65 1016.8
20260504050215 12 103 4.8 8.0 0.00 0.00 0.00 66 1017.0
20260504045716 12 121 1.6 6.4 0.00 0.00 0.00 65 1017.0
20260504045217 12 105 0.0 9.7 0.00 0.00 0.00 65 1017.2
20260504044944 12 103 4.8 12.9 0.00 0.00 0.00 64 1017.0
20260504044217 13 91 0.0 12.9 0.00 0.00 0.00 64 1016.9
20260504043942 13 60 0.0 14.5 0.00 0.00 0.00 64 1017.2
20260504043216 13 103 4.8 14.5 0.00 0.00 0.00 64 1016.9
20260504042716 13 38 6.4 11.3 0.00 0.00 0.00 63 1017.2
20260504042216 13 87 6.4 11.3 0.00 0.00 0.00 64 1017.2
20260504041717 13 330 3.2 8.0 0.00 0.00 0.00 64 1017.1
20260504041445 13 60 6.4 8.0 0.00 0.00 0.00 63 1017.1
20260504040944 13 84 1.6 3.2 0.00 0.00 0.00 63 1017.4
20260504040609 13 90 0.0 3.2 0.00 0.00 0.00 64 1017.1
20260504035716 13 76 0.0 3.2 0.00 0.00 0.00 63 1017.4
20260504035215 13 76 1.6 3.2 0.00 0.00 0.00 63 1017.1
20260504034715 13 69 0.0 3.2 0.00 0.00 0.00 63 1017.1
20260504034217 13 90 0.0 3.2 0.00 0.00 0.00 63 1017.3
20260504033716 13 69 0.0 3.2 0.00 0.00 0.00 63 1017.2
20260504033216 13 69 0.0 3.2 0.00 0.00 0.00 63 1017.2
20260504033020 13 69 0.0 3.2 0.00 0.00 0.00 62 1017.3